User: anonymous   Login
Location: Glens Falls
(43.3090°N, 73.6440°W)
Time: 01:13:58
(UTC-04:00)
Language:

Cosmos 1908 Rocket - Orbit

View from above orbital plane
View from above orbital plane
View from above satellite
View from above satellite

Ground track
Ground track

The orbit data is extracted from the following two-line orbital elements,

1 18749U 88001B   18294.87907211  .00000057  00000-0  39878-5 0  9997
2 18749  82.5170 204.1906 0019950 127.6126 299.7316 14.83168149663350
Epoch (UTC): 21 October 2018 21:05:51
Eccentricity: 0.0019950
inclination: 82.5170°
perigee height: 605 km
apogee height: 633 km
right ascension of ascending node: 204.1906°
argument of perigee: 127.6126°
revolutions per day: 14.83168149
mean anomaly at epoch: 299.7316°
orbit number at epoch: 66335

The dashed part of the orbit path shows where the satellite is in the earth's shadow,  

DLR